TimeEDT,TemperatureF,Dew PointF,Humidity,Sea Level PressureIn,VisibilityMPH,Wind Direction,Wind SpeedMPH,Gust SpeedMPH,PrecipitationIn,Events,Conditions,WindDirDegrees,DateUTC
12:54 AM,52.0,50.0,93,30.25,10.0,Calm,Calm,-,N/A,,Clear,0,2013-08-24 04:54:00
1:54 AM,48.9,46.9,93,30.25,10.0,Calm,Calm,-,N/A,,Clear,0,2013-08-24 05:54:00
2:54 AM,46.9,46.0,97,30.25,10.0,Calm,Calm,-,N/A,,Clear,0,2013-08-24 06:54:00
3:54 AM,46.9,45.0,93,30.26,10.0,Calm,Calm,-,N/A,,Clear,0,2013-08-24 07:54:00
4:54 AM,46.9,45.0,93,30.27,10.0,Calm,Calm,-,N/A,,Partly Cloudy,0,2013-08-24 08:54:00
5:54 AM,46.0,44.1,93,30.29,10.0,Calm,Calm,-,N/A,,Clear,0,2013-08-24 09:54:00
6:54 AM,46.9,45.0,93,30.31,10.0,Calm,Calm,-,N/A,,Clear,0,2013-08-24 10:54:00
7:54 AM,51.1,48.0,89,30.32,10.0,Calm,Calm,-,N/A,,Clear,0,2013-08-24 11:54:00
8:54 AM,63.0,57.0,81,30.33,10.0,Calm,Calm,-,N/A,,Clear,0,2013-08-24 12:54:00
9:54 AM,68.0,57.9,70,30.32,10.0,South,6.9,-,N/A,,Clear,190,2013-08-24 13:54:00
10:54 AM,72.0,55.9,57,30.31,10.0,South,5.8,-,N/A,,Clear,170,2013-08-24 14:54:00
11:54 AM,75.9,55.0,48,30.30,10.0,Variable,5.8,-,N/A,,Clear,0,2013-08-24 15:54:00
12:54 PM,77.0,61.0,58,30.29,10.0,East,10.4,-,N/A,,Partly Cloudy,90,2013-08-24 16:54:00
1:54 PM,75.9,61.0,60,30.28,10.0,ESE,10.4,-,N/A,,Clear,110,2013-08-24 17:54:00
2:54 PM,75.0,61.0,62,30.27,10.0,East,15.0,-,N/A,,Clear,100,2013-08-24 18:54:00
3:54 PM,75.0,62.1,64,30.26,10.0,ESE,10.4,-,N/A,,Clear,110,2013-08-24 19:54:00
4:54 PM,75.9,63.0,64,30.25,10.0,ESE,12.7,-,N/A,,Clear,120,2013-08-24 20:54:00
5:54 PM,75.0,62.1,64,30.24,10.0,East,10.4,-,N/A,,Clear,100,2013-08-24 21:54:00
6:54 PM,73.9,61.0,64,30.24,10.0,East,5.8,-,N/A,,Clear,90,2013-08-24 22:54:00
7:54 PM,73.0,55.9,55,30.23,10.0,SE,8.1,-,N/A,,Clear,140,2013-08-24 23:54:00
8:54 PM,69.1,55.9,63,30.23,10.0,SSE,8.1,-,N/A,,Clear,150,2013-08-25 00:54:00
9:54 PM,69.1,55.0,61,30.24,10.0,South,8.1,-,N/A,,Clear,180,2013-08-25 01:54:00
10:54 PM,64.9,55.9,73,30.25,10.0,Calm,Calm,-,N/A,,Clear,0,2013-08-25 02:54:00
11:54 PM,66.0,55.9,70,30.23,10.0,South,6.9,-,N/A,,Clear,190,2013-08-25 03:54:00